| time (UTC) | temp F | wind direction | speed knots | gust knots | rain 1hr in | rain 24hr in | rain mn in | humidity % | barometer mb |
| 20260510031556 | 70 | 0 | 0.0 | 6.1 | 0.00 | 0.00 | 0.00 | 45 | 1025.1 |
| 20260510030059 | 68 | 310 | 0.0 | 2.6 | 0.00 | 0.00 | 0.00 | 46 | 1025.0 |
| 20260510024557 | 67 | 18 | 0.0 | 3.5 | 0.00 | 0.00 | 0.00 | 48 | 1025.2 |
| 20260510023057 | 66 | 0 | 0.0 | 2.6 | 0.00 | 0.00 | 0.00 | 50 | 1025.5 |
| 20260510021601 | 66 | 0 | 0.0 | 2.6 | 0.00 | 0.00 | 0.00 | 50 | 1025.6 |
| 20260510020057 | 65 | 5 | 0.9 | 5.2 | 0.00 | 0.00 | 0.00 | 52 | 1025.6 |
| 20260510014613 | 64 | 44 | 0.0 | 2.6 | 0.00 | 0.00 | 0.00 | 54 | 1025.9 |
| 20260510013100 | 63 | 0 | 0.0 | 1.7 | 0.00 | 0.00 | 0.00 | 56 | 1025.9 |
| 20260510011554 | 62 | 0 | 0.0 | 2.6 | 0.00 | 0.00 | 0.00 | 58 | 1026.0 |
| 20260510010054 | 61 | 0 | 0.0 | 1.7 | 0.00 | 0.00 | 0.00 | 60 | 1026.1 |
| 20260510004558 | 60 | 40 | 0.0 | 2.6 | 0.00 | 0.00 | 0.00 | 61 | 1026.0 |
| 20260510003106 | 58 | 0 | 0.0 | 1.7 | 0.00 | 0.00 | 0.00 | 63 | 1026.0 |
| 20260510001600 | 57 | 0 | 0.0 | 1.7 | 0.00 | 0.00 | 0.00 | 64 | 1025.7 |
| 20260510000059 | 55 | 28 | 0.0 | 0.9 | 0.00 | 0.00 | 0.00 | 67 | 1025.6 |
| 20260509234600 | 54 | 0 | 0.0 | 1.7 | 0.00 | 0.00 | 0.00 | 69 | 1025.5 |
| 20260509233056 | 52 | 0 | 0.0 | 0.9 | 0.00 | 0.00 | 0.00 | 71 | 1025.6 |
| 20260509231612 | 51 | 0 | 0.0 | 0.9 | 0.00 | 0.00 | 0.00 | 71 | 1025.6 |
| 20260509230100 | 52 | 0 | 0.0 | 0.9 | 0.00 | 0.00 | 0.00 | 69 | 1025.6 |
| 20260509224604 | 53 | 0 | 0.0 | 0.9 | 0.00 | 0.00 | 0.00 | 68 | 1025.3 |
| 20260509223059 | 53 | 0 | 0.0 | 1.7 | 0.00 | 0.00 | 0.00 | 67 | 1025.4 |
| 20260509221604 | 54 | 0 | 0.0 | 1.7 | 0.00 | 0.00 | 0.00 | 66 | 1025.5 |
| 20260509220055 | 54 | 171 | 0.0 | 0.9 | 0.00 | 0.00 | 0.00 | 66 | 1025.3 |
| 20260509214559 | 54 | 351 | 0.0 | 1.7 | 0.00 | 0.00 | 0.00 | 66 | 1025.2 |
| 20260509213056 | 54 | 0 | 0.0 | 0.9 | 0.00 | 0.00 | 0.00 | 66 | 1025.0 |
| 20260509211558 | 54 | 0 | 0.0 | 1.7 | 0.00 | 0.00 | 0.00 | 65 | 1024.9 |
| 20260509210113 | 54 | 0 | 0.0 | 1.7 | 0.00 | 0.00 | 0.00 | 65 | 1024.8 |
| 20260509204600 | 54 | 346 | 0.0 | 1.7 | 0.00 | 0.00 | 0.00 | 65 | 1024.6 |
| 20260509203059 | 54 | 0 | 0.0 | 0.9 | 0.00 | 0.00 | 0.00 | 64 | 1024.7 |
| 20260509201559 | 55 | 0 | 0.0 | 1.7 | 0.00 | 0.00 | 0.00 | 63 | 1024.3 |
| 20260509194558 | 55 | 0 | 0.0 | 1.7 | 0.00 | 0.00 | 0.00 | 62 | 1024.0 |
| 20260509193058 | 55 | 111 | 0.0 | 3.5 | 0.00 | 0.00 | 0.00 | 62 | 1023.9 |
| 20260509191558 | 56 | 0 | 0.0 | 1.7 | 0.00 | 0.00 | 0.00 | 61 | 1024.1 |
| 20260509190107 | 56 | 19 | 0.0 | 1.7 | 0.00 | 0.00 | 0.00 | 61 | 1024.0 |
| 20260509184552 | 55 | 355 | 0.0 | 3.5 | 0.00 | 0.00 | 0.00 | 62 | 1024.0 |
| 20260509183053 | 53 | 0 | 0.0 | 0.9 | 0.00 | 0.00 | 0.00 | 64 | 1024.1 |
| 20260509181559 | 53 | 0 | 0.0 | 0.9 | 0.00 | 0.00 | 0.00 | 64 | 1024.1 |
| 20260509180100 | 53 | 0 | 0.0 | 0.9 | 0.00 | 0.00 | 0.00 | 63 | 1024.1 |
| 20260509174557 | 53 | 0 | 0.0 | 0.9 | 0.00 | 0.00 | 0.00 | 65 | 1024.3 |
| 20260509173056 | 53 | 0 | 0.0 | 0.0 | 0.00 | 0.00 | 0.00 | 64 | 1024.4 |
| 20260509171555 | 52 | 74 | 0.0 | 0.0 | 0.00 | 0.00 | 0.00 | 65 | 1024.4 |
| 20260509170106 | 53 | 0 | 0.0 | 0.9 | 0.00 | 0.00 | 0.00 | 64 | 1024.4 |
| 20260509164557 | 53 | 0 | 0.0 | 0.0 | 0.00 | 0.00 | 0.00 | 64 | 1024.4 |
| 20260509163055 | 53 | 0 | 0.0 | 0.9 | 0.00 | 0.00 | 0.00 | 63 | 1024.5 |
| 20260509161558 | 53 | 0 | 0.0 | 0.9 | 0.00 | 0.00 | 0.00 | 64 | 1024.5 |
| 20260509160053 | 53 | 0 | 0.0 | 0.9 | 0.00 | 0.00 | 0.00 | 64 | 1024.6 |
| 20260509154559 | 52 | 0 | 0.0 | 0.9 | 0.00 | 0.00 | 0.00 | 68 | 1024.7 |
| 20260509153059 | 50 | 95 | 0.0 | 0.9 | 0.00 | 0.00 | 0.00 | 72 | 1024.8 |
| 20260509151558 | 49 | 0 | 0.0 | 0.0 | 0.00 | 0.00 | 0.00 | 72 | 1025.0 |
| 20260509150055 | 51 | 0 | 0.0 | 0.0 | 0.00 | 0.00 | 0.00 | 70 | 1025.1 |
| 20260509144552 | 50 | 0 | 0.0 | 0.0 | 0.00 | 0.00 | 0.00 | 70 | 1025.1 |
| 20260509143056 | 51 | 0 | 0.0 | 0.0 | 0.00 | 0.00 | 0.00 | 68 | 1025.2 |
| 20260509141554 | 52 | 0 | 0.0 | 0.0 | 0.00 | 0.00 | 0.00 | 66 | 1025.3 |
| 20260509134625 | 52 | 0 | 0.0 | 0.0 | 0.00 | 0.00 | 0.00 | 65 | 1025.1 |
| 20260509133057 | 53 | 0 | 0.0 | 0.0 | 0.00 | 0.00 | 0.00 | 63 | 1025.1 |
| 20260509131557 | 54 | 0 | 0.0 | 0.0 | 0.00 | 0.00 | 0.00 | 61 | 1025.0 |
| 20260509130052 | 55 | 0 | 0.0 | 0.0 | 0.00 | 0.00 | 0.00 | 59 | 1024.9 |
| 20260509124629 | 56 | 0 | 0.0 | 0.0 | 0.00 | 0.00 | 0.00 | 58 | 1024.9 |
| 20260509123058 | 56 | 0 | 0.0 | 2.6 | 0.00 | 0.00 | 0.00 | 59 | 1024.9 |
| 20260509121556 | 56 | 0 | 0.0 | 0.0 | 0.00 | 0.00 | 0.00 | 59 | 1024.7 |
| 20260509120056 | 57 | 0 | 0.0 | 0.9 | 0.00 | 0.00 | 0.00 | 56 | 1024.7 |
| 20260509114558 | 59 | 0 | 0.0 | 0.9 | 0.00 | 0.00 | 0.00 | 54 | 1024.6 |
| 20260509113057 | 58 | 0 | 0.0 | 0.0 | 0.00 | 0.00 | 0.00 | 58 | 1024.5 |
| 20260509111558 | 56 | 0 | 0.0 | 0.9 | 0.00 | 0.00 | 0.00 | 65 | 1024.5 |
| 20260509110055 | 56 | 0 | 0.0 | 0.0 | 0.00 | 0.00 | 0.00 | 65 | 1024.6 |
| 20260509104555 | 58 | 0 | 0.0 | 0.0 | 0.00 | 0.00 | 0.00 | 60 | 1024.6 |
| 20260509103100 | 59 | 0 | 0.0 | 0.0 | 0.00 | 0.00 | 0.00 | 59 | 1024.6 |
| 20260509101601 | 60 | 0 | 0.0 | 0.0 | 0.00 | 0.00 | 0.00 | 58 | 1024.5 |
| 20260509100058 | 62 | 0 | 0.0 | 0.0 | 0.00 | 0.00 | 0.00 | 54 | 1024.4 |
| 20260509094600 | 62 | 0 | 0.0 | 0.0 | 0.00 | 0.00 | 0.00 | 52 | 1024.3 |
| 20260509093058 | 65 | 0 | 0.0 | 0.0 | 0.00 | 0.00 | 0.00 | 47 | 1024.3 |
| 20260509091555 | 66 | 0 | 0.0 | 0.0 | 0.00 | 0.00 | 0.00 | 44 | 1024.3 |
| 20260509090053 | 68 | 0 | 0.0 | 0.0 | 0.00 | 0.00 | 0.00 | 40 | 1024.3 |
| 20260509084555 | 70 | 0 | 0.0 | 1.7 | 0.00 | 0.00 | 0.00 | 36 | 1024.3 |
| 20260509083054 | 69 | 0 | 0.0 | 0.0 | 0.00 | 0.00 | 0.00 | 38 | 1024.2 |
| 20260509081555 | 70 | 0 | 0.0 | 1.7 | 0.00 | 0.00 | 0.00 | 36 | 1024.2 |
| 20260509080055 | 71 | 0 | 0.0 | 1.7 | 0.00 | 0.00 | 0.00 | 36 | 1024.2 |
| 20260509074603 | 72 | 0 | 0.0 | 1.7 | 0.00 | 0.00 | 0.00 | 36 | 1024.1 |
| 20260509073101 | 73 | 0 | 0.0 | 4.3 | 0.00 | 0.00 | 0.00 | 34 | 1024.0 |
| 20260509071608 | 74 | 0 | 0.0 | 3.5 | 0.00 | 0.00 | 0.00 | 33 | 1023.9 |
| 20260509070053 | 74 | 0 | 0.0 | 3.5 | 0.00 | 0.00 | 0.00 | 34 | 1023.7 |
| 20260509064559 | 74 | 0 | 0.0 | 1.7 | 0.00 | 0.00 | 0.00 | 34 | 1023.5 |
| 20260509063055 | 74 | 0 | 0.0 | 2.6 | 0.00 | 0.00 | 0.00 | 34 | 1023.5 |
| 20260509061623 | 73 | 69 | 0.9 | 7.0 | 0.00 | 0.00 | 0.00 | 35 | 1023.5 |
| 20260509060054 | 74 | 0 | 0.0 | 2.6 | 0.00 | 0.00 | 0.00 | 35 | 1023.6 |
| 20260509054555 | 74 | 61 | 0.0 | 2.6 | 0.00 | 0.00 | 0.00 | 36 | 1023.7 |
| 20260509053056 | 74 | 208 | 0.0 | 3.5 | 0.00 | 0.00 | 0.00 | 39 | 1023.9 |
| 20260509051552 | 73 | 347 | 0.9 | 5.2 | 0.00 | 0.00 | 0.00 | 38 | 1024.0 |
| 20260509050105 | 73 | 311 | 0.9 | 3.5 | 0.00 | 0.00 | 0.00 | 40 | 1024.1 |
| 20260509044556 | 72 | 111 | 0.9 | 6.1 | 0.00 | 0.00 | 0.00 | 40 | 1024.4 |
| 20260509043058 | 72 | 0 | 0.9 | 5.2 | 0.00 | 0.00 | 0.00 | 41 | 1024.7 |
| 20260509041554 | 71 | 345 | 0.0 | 3.5 | 0.00 | 0.00 | 0.00 | 42 | 1025.1 |
| 20260509040054 | 71 | 0 | 0.0 | 3.5 | 0.00 | 0.00 | 0.00 | 43 | 1025.5 |
| 20260509034555 | 70 | 12 | 0.9 | 7.0 | 0.00 | 0.00 | 0.00 | 44 | 1025.7 |
| 20260509033311 | 69 | 174 | 0.9 | 6.1 | 0.00 | 0.00 | 0.00 | 45 | 1026.0 |